EW5383 Weather Reports


Display with metric or nautical units.
time (UTC)temp
F
wind
direction
speed
MPH
gust
MPH
rain 1hr
in
rain 24hr
in
rain mn
in
humidity
%
barometer
mb
20200406071634 64 281 0.0 1.0 0.00 0.10 0.00 1 1015.9
20200406070138 64 281 0.0 1.0 0.00 0.10 0.00 1 1016.2
20200406064615 64 281 0.0 0.0 0.00 0.10 0.00 1 1016.4
20200406063109 64 281 0.0 3.0 0.00 0.10 0.00 1 1016.4
20200406061637 64 281 0.0 2.0 0.00 0.10 0.00 1 1016.4
20200406060339 64 281 0.0 2.0 0.00 0.10 0.00 1 1016.6
20200406054530 64 281 0.0 3.0 0.00 0.10 0.00 1 1016.7
20200406053029 64 281 0.0 2.0 0.00 0.10 0.00 1 1016.6
20200406051523 64 281 0.0 2.0 0.00 0.10 0.00 1 1016.7
20200406050016 64 281 0.0 2.0 0.00 0.10 0.00 1 1016.8
20200406044526 64 281 0.0 2.0 0.00 0.10 0.00 1 1016.9
20200406043152 64 281 0.0 2.0 0.00 0.10 0.00 1 1016.7
20200406041717 64 281 0.0 3.0 0.00 0.10 0.00 1 1016.9
20200406040051 64 281 0.0 2.0 0.01 0.10 0.00 1 1016.8
20200406034639 64 281 0.0 2.0 0.01 0.10 0.10 1 1016.8
20200406033121 64 281 0.0 3.0 0.01 0.10 0.10 1 1016.9
20200406031608 64 281 0.0 3.0 0.01 0.10 0.10 1 1017.2
20200406030143 64 281 0.0 3.0 0.00 0.09 0.09 1 1017.1
20200406024531 64 281 1.0 4.0 0.01 0.09 0.09 1 1017.2
20200406023038 64 281 0.0 2.0 0.01 0.09 0.09 1 1017.1
20200406021533 64 281 0.0 2.0 0.01 0.09 0.09 1 1017.0
20200406020033 63 281 0.0 5.0 0.02 0.09 0.09 1 1016.9
20200406014514 63 281 0.0 4.0 0.02 0.08 0.08 1 1016.7
20200406013017 63 281 0.0 1.0 0.03 0.08 0.08 1 1016.5
20200406011502 63 281 0.0 3.0 0.03 0.08 0.08 1 1016.5
20200406010121 63 281 0.0 1.0 0.02 0.07 0.07 1 1016.3
20200406004708 63 281 0.0 0.0 0.02 0.06 0.06 1 1016.3
20200406003207 63 281 0.0 2.0 0.03 0.05 0.05 1 1016.0
20200406001611 63 281 0.0 3.0 0.04 0.05 0.05 1 1016.0
20200406000153 63 281 1.0 3.0 0.04 0.05 0.05 1 1015.4
20200405234611 63 281 0.0 3.0 0.03 0.04 0.04 1 1015.8
20200405233112 63 281 0.0 3.0 0.01 0.02 0.02 1 1015.8
20200405231538 64 281 0.0 1.0 0.00 0.01 0.01 1 1015.7
20200405230127 64 281 0.0 4.0 0.00 0.01 0.01 1 1015.4
20200405224519 64 281 0.0 3.0 0.00 0.01 0.01 1 1015.3
20200405223019 64 281 0.0 3.0 0.00 0.01 0.01 1 1015.8